Flag for Japan Weather past 2 weeks in Sapporo, Japan

Now
45 °F

Fog.


Feels Like: 40 °F
Forecast: 37 / 52 °F
Wind: 9 mph from North

Location: Sapporo

Current Time: Mar 29, 2015 at 10:08:34 PM

Latest Report: Mar 29, 2015 at 9:00 PM


Visibility: 3 mi

Pressure: 29.93 "Hg

Humidity: 81%

Dew point: 40 °F

Location of SapporoLocation

Historic Weather in Sapporo — Graph

°F

Sapporo temperature yesterday

Maximum temperature yesterday: 60 °F (at 3:00 PM)
Minimum temperature yesterday: 40 °F (at 5:00 AM)
Average temperature yesterday: 50 °F

Past Weeks' High & Low Weather Summary

 TemperatureHumidityPressure
High60 °F (Mar 28, 3:00 PM)89% (Mar 21, 12:00 AM)30.32 "Hg (Mar 21, 12:00 AM)
Low31 °F (Mar 15, 6:00 AM)29% (Mar 23, 10:00 AM)29.62 "Hg (Mar 24, 6:00 AM)
Average41 °F60%29.97 "Hg
* Reported Mar 14 8:00 PM — Mar 29 8:00 PM, Sapporo, Weather by CustomWeather, © 2015

Note: Actual official high and low records may vary slightly from our data, if they occured in-between our weather recording intervals... More about our weather records

Advertising

Sapporo weather history for previous 24 hours

 ConditionsComfort  
Time TempWeatherWind HumidityBarometerVisibility
8:00 PM
Sun, Mar 29
45 °FCool.7 mph82%29.93 "HgN/A
7:00 PM46 °FCool.8 mph79%29.91 "HgN/A
6:00 PM46 °FFog.9 mph78%29.88 "Hg5 mi
5:00 PM46 °FCool.9 mph77%29.87 "HgN/A
4:00 PM48 °FCool.7 mph75%29.85 "HgN/A
3:00 PM51 °FOvercast.9 mph61%29.83 "Hg9 mi
2:00 PM54 °FCool.13 mph48%29.80 "HgN/A
1:00 PM60 °FRefreshingly cool.7 mph32%29.78 "HgN/A
11:00 AM56 °FRefreshingly cool.12 mph33%29.80 "HgN/A
10:00 AM54 °FCool.6 mph46%29.82 "HgN/A
9:00 AM49 °FOvercast.7 mph59%29.83 "Hg9 mi
8:00 AM46 °FCool.9 mph64%29.82 "HgN/A
7:00 AM43 °FQuite cool.7 mph73%29.82 "HgN/A
5:00 AM42 °FQuite cool.10 mph80%29.81 "HgN/A
4:00 AM42 °FQuite cool.10 mph81%29.82 "HgN/A
3:00 AM44 °FPassing clouds.9 mph76%29.83 "Hg6 mi
2:00 AM45 °FQuite cool.9 mph72%29.83 "HgN/A
1:00 AM45 °FQuite cool.9 mph68%29.85 "HgN/A
12:00 AM47 °FCool.6 mph61%29.87 "HgN/A
11:00 PM
Sat, Mar 28
48 °FCool.8 mph54%29.89 "HgN/A
10:00 PM51 °FCool.9 mph55%29.90 "HgN/A
Weather by CustomWeather, © 2015

See weather overviewHow to use our weather pages